Main page
METAR-TAF:

METAR-TAF

Airports :

Pembrey Airport

Pembrey, Wales

latitude: 51-43N, longitude: 004-22W, elevation: 3 m

Current weather observation

The report was made 24 minutes ago, at 22:50 UTC
Wind 2 kt from the Northwest
Temperature 1°C
Humidity 93%
Pressure 990 hPa
Visibility 10 km or more

METAR: EGOP 232250Z AUTO 32002KT 9999 NCD 01/M00 Q0990

Time: 23:14 (23:14 UTC)


TAF: missing

Weather observations and forecasts of more than 4000 airports (METAR and TAF reports).

The available stations are represented by yellow and red dots on the map.

Hover mouse over dot to see the name of the station.

Then click to see weather observations and forecasts.

To change the map : click on the green buttons with a black cross to zoom in, on the green button with a dash to zoom out, or on the green arrows for adjacent maps.


METAR-TAF: